Forside
METAR-TAF:

METAR-TAF

Lufthavne :

Price County Airport

Phillips, Wisconsin, USA

Breddekreds: 45-42N, længdekreds: 090-24W, højde: 449 m

Aktuelle vejr

Denne rapport blev lavet for 13 minutter siden, kl. 12:35 UTC
Vind stille
Temperatur 2°C
Fugtighed 69%
Tryk 1028 hPa
Sigt: 16.1 km
skyfri

METAR: KPBH 111235Z AUTO 00000KT 10SM CLR 02/M03 A3036 RMK AO2 T00191033

Tid: 07:48 (12:48 UTC)


TAF: fraværende

Vejrobservationer og prognoser fra mere end 4000 lufthavne (METAR og TAF).

De gule og røde prikker repræsenterer de meteorologiske stationer.

Flyt musen over at se navnet på stationen.

Så klik over at se vejr observationer og prognoser.

At skifte det kort: Klik på de grønne knapper med et sort kors for at zoome ind; på den grønne knap med en bindestreg for at zoome ud; eller på de grønne pile for tilstødende kort.


METAR-TAF: